Flag for U.S.A. Weather past 2 weeks in Tyler, Texas, U.S.A.

Now
44 °F

Fog.


Feels Like: 40 °F
Forecast: 47 / 67 °F
Wind: 7 mph from Southeast

Location: Tyler Pounds Field

Current Time: Mar 3, 2015 at 3:00:07 AM

Latest Report: Mar 3, 2015 at 1:53 AM


Visibility: 1 mi

Pressure: 30.10 "Hg

Humidity: 93%

Dew point: 42 °F

Location of TylerLocation

Historic Weather in Tyler — Graph

°F

Tyler temperature yesterday

Maximum temperature yesterday: 44 °F (at 3:53 PM)
Minimum temperature yesterday: 40 °F (at 4:53 AM)
Average temperature yesterday: 42 °F

Past Weeks' High & Low Weather Summary

 TemperatureHumidityPressure
High71 °F (Feb 21, 11:53 AM)100% (Feb 16, 7:53 AM)30.55 "Hg (Feb 16, 7:53 AM)
Low27 °F (Feb 26, 3:53 AM)27% (Feb 19, 12:53 PM)29.74 "Hg (Feb 21, 3:53 AM)
Average41 °F75%30.19 "Hg
* Reported Feb 16 1:53 AM — Mar 3 1:53 AM, Tyler, Weather by CustomWeather, © 2015

Note: Actual official high and low records may vary slightly from our data, if they occured in-between our weather recording intervals... More about our weather records

Advertising

Tyler weather history for previous 24 hours

 ConditionsComfort  
Time TempWeatherWind HumidityBarometerVisibility
1:53 AM
Tue, Mar 3
44 °FFog.7 mph93%30.10 "Hg1 mi
12:53 AM44 °FFog.7 mph93%30.12 "Hg2 mi
11:53 PM
Mon, Mar 2
43 °FFog.8 mph93%30.14 "Hg6 mi
10:53 PM43 °FFog.7 mph93%30.17 "Hg2 mi
10:04 PM43 °FFog.7 mph93%30.19 "Hg2 mi
9:53 PM43 °FFog.6 mph93%30.19 "Hg3 mi
8:53 PM43 °FLow clouds.5 mph93%30.20 "Hg8 mi
7:53 PM43 °FFog.5 mph93%30.21 "Hg5 mi
6:53 PM43 °FFog.6 mph93%30.20 "Hg3 mi
5:53 PM43 °FFog.5 mph93%30.21 "Hg2 mi
4:53 PM44 °FFog.7 mph89%30.20 "Hg1 mi
3:53 PM44 °FFog.7 mph93%30.22 "Hg4 mi
2:53 PM43 °FFog.8 mph93%30.24 "Hg1 mi
1:53 PM43 °FFog.10 mph93%30.26 "Hg2 mi
1:03 PM43 °FFog.9 mph93%30.30 "Hg1 mi
12:53 PM43 °FFog.9 mph93%30.29 "Hg2 mi
11:53 AM43 °FFog.7 mph93%30.34 "Hg2 mi
10:53 AM43 °FFog.8 mph89%30.35 "Hg2 mi
9:53 AM42 °FLow clouds.9 mph92%30.36 "Hg10 mi
8:53 AM42 °FLow clouds.9 mph89%30.35 "Hg10 mi
7:53 AM41 °FLight rain. Fog.6 mph93%30.34 "Hg4 mi
7:00 AM40 °FLight rain. Fog.7 mph97%30.33 "Hg3 mi
5:53 AM40 °FFog.8 mph93%30.32 "Hg2 mi
4:53 AM40 °FLight rain. Fog.8 mph93%30.30 "Hg3 mi
3:53 AM41 °FFog.8 mph93%30.31 "Hg4 mi
3:03 AM41 °FFog.8 mph93%30.32 "Hg3 mi
Weather by CustomWeather, © 2015

See weather overviewHow to use our weather pages